STARLINK-32284, 61005

Orbit data source: Space-Track

STARLINK-32284, 61005 is a payload satellite owned by SpaceX/Seattle (US) in LEO that was launched on Thu, 05 Sep 2024 UTC via an FALCON 9 launch vehicle from the Air Force Eastern Test Range (AFETR). Payload-class satellites include a variety of spacecraft equipped with specific instruments for various scientific and technological missions. These include communications satellites like Starlink; space stations such as the ISS; scientific satellites like the Hubble; Earth observation satellites from companies like Planet Labs, Umbra, and HawkEye 360; GPS; miniature CubeSats for education and research; and military/defense satellites.

Loading next visibility...
Identifier
61005, 2024-158R
Orbit
LEO
Country
Flag of USUS
Related business
Manufacturer
SpaceX/Seattle
Mission
Operational Commercial Communications
Bus & Motor
STARLINK V2M, Unknown motor
Mass
730 kg wet, ~700 kg dry
Launch date (UTC)
2024-09-05 (1 year ago)
Launch vehicle
FALCON 9
Launch site
Air Force Eastern Test Range (AFETR)
Object type
Payload
Rocket body
Debris
Shape & HBR
Box + 2 Pan, 17.7 m
Radar Cross Section
33.884 m², Large (>1 m²)

Expand to show TLE details & history
Last TLE update: 22 hours ago

TLE from 22 hours ago
0 STARLINK-32284
1 61005U 24158R   25286.55872490  .00000544  00000-0  30482-4 0  9999
2 61005  53.1620  29.0302 0001100  82.0623 278.0503 15.30190067 63051
Epoch: 2025-10-13T13:24Z
TLE epoch observation values (Epoch: 2025-10-13T13:24:33.831Z)
Latitude
0.00002°
Longitude
165.52948°
Altitude
476.039 km
Speed
7.629 km/s
True Right ascension
01h 56m 07s
True Declination
0° 00' 00"
Sunlit
Object was in full shadow at epoch
Visualization orbit readout
Latitude
Unknown
Longitude
Unknown
Altitude
Unknown
Speed
Unknown
Apparent Right ascension
Unknown
Apparent Declination
Unknown
Sunlit
N/A
Visualization observer readout
Local Sidereal Time
05:42:27
Azimuth
Unknown
Elevation
Unknown
Doppler factor
Unknown
Orbital elements
Apogee altitude
476.255 km
Perigee altitude
474.747 km
Semi-major axis
6,853.638 km
Eccentricity
0.00011
Inclination
53.162°
RAAN
29.0302°
Arg. of periapsis
82.0623°
True anomaly
278.03782°
Mean anomaly
278.0503°
Eccentric anomaly
278.04406°
Mean motion
3.82526 °/min
Orbital period
94.11 mins
BSTAR
0.000030482
Loading maneuver chart data...
Computing Atmospheric mass density...
Loading historical data...
Loading historical data...
Loading historical data...
Loading historical data...
Loading historical data...
Loading historical data...
Loading historical data...

Documentation

Showing up to 5 results
|